This demonstration page uses our WeatherBlox Daily Observations layout. Learn more.

Left ArrowRight Arrow

Hourly Observations for December 6, 2019

Temp ( °F °C ) Dew Point ( °F °C ) Humidity (%) Winds ( mph kmh ) Pressure ( in mb ) Visibility ( mi km ) Precip ( " mm )
12:56 am 00:56 Cloudy 30 -1.1 26 -3.3 85 85 N 21 33 30.32 1027 10 16 0.00 0.00
1:56 am 01:56 Cloudy 29 -1.7 25 -3.9 85 85 N 18 30 30.35 1028 10 16 0.00 0.00
2:56 am 02:56 Cloudy 29 -1.7 25 -3.9 85 85 N 14 22 30.37 1029 10 16 0.00 0.00
3:56 am 03:56 Cloudy 28 -2.2 24 -4.4 85 85 N 15 24 30.38 1029 10 16 0.00 0.00
4:56 am 04:56 Cloudy 28 -2.2 24 -4.4 85 85 NNE 15 24 30.38 1029 10 16 0.00 0.00
5:56 am 05:56 Cloudy 28 -2.2 24 -4.4 85 85 N 10 17 30.40 1029 10 16 0.00 0.00
6:56 am 06:56 Cloudy 27 -2.8 24 -4.4 89 89 N 6 9 30.42 1030 10 16 0.00 0.00
7:56 am 07:56 Cloudy 27 -2.8 24 -4.4 89 89 NNE 7 11 30.44 1031 10 16 0.00 0.00
8:56 am 08:56 Cloudy 27 -2.8 24 -4.4 89 89 Calm 30.45 1031 10 16 0.00 0.00
9:56 am 09:56 Cloudy 28 -2.2 24 -4.4 85 85 WNW 3 6 30.46 1032 10 16 0.00 0.00
10:56 am 10:56 Mostly Cloudy 30 -1.1 25 -3.9 82 82 SSW 7 11 30.46 1032 10 16 0.00 0.00
11:15 am 11:15 Partly Cloudy 30 -1 25 -4 80 80 WSW 5 7 30.50 1033 10 16 0.00 0.00
11:56 am 11:56 Sunny 32 0 25 -3.9 75 75 SSW 6 9 30.43 1031 10 16 0.00 0.00
12:56 pm 12:56 Sunny 34 1.1 26 -3.3 73 73 SW 7 11 30.40 1030 10 16 0.00 0.00
1:56 pm 13:56 Sunny 37 2.8 26 -3.3 65 65 S 10 17 30.38 1029 10 16 0.00 0.00
2:56 pm 14:56 Sunny 39 3.9 27 -2.8 62 62 SSW 10 17 30.36 1028 10 16 0.00 0.00
3:56 pm 15:56 Sunny 39 3.9 27 -2.8 62 62 SSW 13 20 30.35 1028 10 16 0.00 0.00
4:56 pm 16:56 Mostly Cloudy 35 1.7 27 -2.8 72 72 S 8 13 30.34 1028 10 16 0.00 0.00
5:56 pm 17:56 Clear 30 -1.1 26 -3.3 85 85 S 9 15 30.34 1028 10 16 0.00 0.00
6:56 pm 18:56 Clear 29 -1.7 25 -3.9 85 85 S 7 11 30.34 1028 10 16 0.00 0.00
7:56 pm 19:56 Clear 31 -0.6 26 -3.3 82 82 S 8 13 30.35 1028 10 16 0.00 0.00
8:56 pm 20:56 Clear 30 -1.1 25 -3.9 82 82 SSW 9 15 30.33 1027 10 16 0.00 0.00
9:56 pm 21:56 Clear 31 -0.6 25 -3.9 79 79 SSW 12 19 30.32 1027 10 16 0.00 0.00
10:56 pm 22:56 Clear 30 -1.1 25 -3.9 82 82 SSW 14 22 30.31 1027 10 16 0.00 0.00
11:56 pm 23:56 Clear 31 -0.6 25 -3.9 79 79 SSW 14 22 30.29 1026 10 16 0.00 0.00

Powered by AerisWeather